{"data":{"norad_id":62907,"intl_designator":"2025-027A","name":"STARLINK-11552 [DTC]","alt_names":[],"object_type":"PAYLOAD","status":"ACTIVE","operator":null,"country":"US","launch_date":"2025-02-08","launch_site_code":"AFETR","launch_vehicle":null,"mission":null,"orbit_class":"UNKNOWN","rcs_meters":null,"size_class":null,"mass_kg":null,"dimensions":null,"purposes":["comms"],"wikipedia_slug":null,"has_3d_model":false,"image_url":null,"decayed_at":null,"tle_current":{"epoch":"2026-09-21T00:50:03.594048Z","epoch_age_seconds":122055,"freshness":"FRESH","line1":"1 62907U 25027A   26264.03476382  .00135951  00000+0  10456-2 0  9994","line2":"2 62907  42.9990 250.2972 0002329 279.6484  80.4120 15.70841757 93914","mean_motion":15.70841757,"eccentricity":0.0002329,"inclination_deg":42.999,"raan_deg":250.2972,"arg_perigee_deg":279.6484,"mean_anomaly_deg":80.412,"bstar":0.0010456,"rev_number":9391,"period_min":91.67059594533,"perigee_km":354.92154510086,"apogee_km":358.05853437597,"semimajor_km":6734.6270397384,"source":"CELESTRAK","updated_at":"2026-09-22T09:00:49.706268Z"}}}